Location: Unspecified
(0.0000°N, 0.0000°E)
Time: 02:19:30
(UTC+00:00)

XW-2C - Visible Passes

Search period start: 22 January 2018 00:00
Search period end: 01 February 2018 00:00
Orbit: 510 x 531 km, 97.5° (Epoch: 21 January)

Date Brightness Start Highest point End Pass type
(mag) Time Alt. Az. Time Alt. Az. Time Alt. Az.
24 Jan ? 05:44:46 10° N 05:48:29 87° WNW 05:52:14 10° SSW visible
25 Jan ? 05:31:41 10° NNE 05:35:19 54° E 05:38:59 10° S visible
26 Jan ? 05:18:48 10° NE 05:22:09 32° ESE 05:25:31 10° SSE visible
27 Jan ? 05:06:12 10° NE 05:08:58 20° ESE 05:11:47 10° SSE visible
27 Jan ? 18:34:12 10° SW 18:36:22 15° WSW 18:38:32 10° WNW visible
28 Jan ? 04:54:09 10° ENE 04:55:49 13° ESE 04:57:29 10° SE visible
31 Jan ? 05:46:26 10° N 05:50:10 81° WNW 05:53:55 10° SSW visible
